Location: Mareeba Aerodrome
(17.0701°S, 145.4240°E)
Time: 02:17:26
(UTC+10:00)

Hubble Space Telescope - Visible Passes

Search period start: 06 October 2022 00:00
Search period end: 16 October 2022 00:00
Orbit: 531 x 535 km, 28.5° (Epoch: 04 October)

Date Brightness Start Highest point End Pass type
(mag) Time Alt. Az. Time Alt. Az. Time Alt. Az.
06 Oct 3.0 04:50:08 10° SW 04:53:02 19° S 04:56:00 10° SE visible
07 Oct 2.9 04:38:34 13° SSW 04:40:54 20° S 04:44:01 10° ESE visible
08 Oct 2.7 04:27:03 18° SSW 04:28:43 23° SSE 04:32:02 10° ESE visible
09 Oct 2.5 04:15:37 24° S 04:16:32 26° SSE 04:20:01 10° ESE visible
10 Oct 2.3 04:04:17 30° SSE 04:04:19 30° SSE 04:07:59 10° ESE visible
11 Oct 2.5 03:53:01 31° SE 03:53:01 31° SE 03:55:54 10° E visible
11 Oct 1.0 05:29:11 10° WSW 05:33:12 53° NNW 05:37:14 10° NE visible
11 Oct 2.8 19:11:09 10° N 19:12:41 12° NNE 19:12:41 12° NNE visible
12 Oct 3.0 03:41:53 24° E 03:41:53 24° E 03:43:46 10° E visible
12 Oct 1.4 05:17:09 11° W 05:20:52 40° NNW 05:24:44 10° NE visible
12 Oct 2.5 18:57:50 10° N 19:00:25 16° NNE 19:01:50 14° NE visible
13 Oct 3.6 03:30:51 15° E 03:30:51 15° E 03:31:34 10° E visible
13 Oct 1.7 05:06:07 17° W 05:08:31 30° NNW 05:12:07 10° NNE visible
13 Oct 2.2 18:44:53 10° NNW 18:48:03 22° NNE 18:50:58 11° ENE visible
13 Oct 3.1 20:24:52 10° WNW 20:26:15 20° WNW 20:26:15 20° WNW visible
14 Oct 2.1 04:55:09 21° NW 04:56:08 22° NNW 04:59:24 10° NNE visible
14 Oct 1.8 18:32:07 10° NNW 18:35:41 28° NNE 18:39:14 10° E visible
14 Oct 2.1 20:12:36 10° WNW 20:15:19 37° W 20:15:19 37° W visible
15 Oct 2.5 04:44:15 17° NNW 04:44:15 17° NNW 04:46:28 10° N visible
15 Oct 1.6 20:00:23 10° W 20:04:18 45° SSW 20:04:18 45° SSW visible
